STARLINK-34019, 64032

Orbit data source: Space-Track

STARLINK-34019, 64032 is a payload satellite owned by SpaceX/Seattle (US) in LEO that was launched on Fri, 16 May 2025 UTC via an FALCON 9 launch vehicle from the Air Force Western Test Range (AFWTR). Payload-class satellites include a variety of spacecraft equipped with specific instruments for various scientific and technological missions. These include communications satellites like Starlink; space stations such as the ISS; scientific satellites like the Hubble; Earth observation satellites from companies like Planet Labs, Umbra, and HawkEye 360; GPS; miniature CubeSats for education and research; and military/defense satellites.

Loading next visibility...
Identifier
64032, 2025-102L
Orbit
LEO
Country
Flag of USUS
Related business
Manufacturer
SpaceX/Seattle
Mission
Operational Commercial Communications
Bus & Motor
STARLINK V2MO, Unknown motor
Mass
575 kg wet, ~530 kg dry
Launch date (UTC)
2025-05-16 (1 year ago)
Launch vehicle
FALCON 9
Launch site
Air Force Western Test Range (AFWTR)
Object type
Payload
Rocket body
Debris
Shape & HBR
Box + 2 Pan, 17.7 m
Radar Cross Section
36.964 m², Large (>1 m²)

Expand to show TLE details & history
Last TLE update: 12 hours ago

TLE from 12 hours ago
0 STARLINK-34019
1 64032U 25102L   26171.35531508  .00002248  00000-0  19611-3 0  9999
2 64032  70.0001 215.4656 0003925 267.8880  92.1830 14.98335796 61344
Epoch: 2026-06-20T08:31Z
TLE epoch observation values (Epoch: 2026-06-20T08:31:39.222Z)
Latitude
-0.00001°
Longitude
178.98104°
Altitude
574.567 km
Speed
7.574 km/s
True Right ascension
14h 21m 51s
True Declination
0° 00' 00"
Sunlit
Object was in full shadow at epoch
Visualization orbit readout
Latitude
Unknown
Longitude
Unknown
Altitude
Unknown
Speed
Unknown
Apparent Right ascension
Unknown
Apparent Declination
Unknown
Sunlit
N/A
Visualization observer readout
Local Sidereal Time
07:12:25
Azimuth
Unknown
Elevation
Unknown
Doppler factor
Unknown
Orbital elements
Apogee altitude
572.713 km
Perigee altitude
567.259 km
Semi-major axis
6,948.123 km
Eccentricity
0.00039
Inclination
70.0001°
RAAN
215.4656°
Arg. of periapsis
267.888°
True anomaly
92.22794°
Mean anomaly
92.183°
Eccentric anomaly
92.20547°
Mean motion
3.7475 °/min
Orbital period
96.06 mins
BSTAR
0.00019611
Loading maneuver chart data...
Computing Atmospheric mass density...
Loading historical data...
Loading historical data...
Loading historical data...
Loading historical data...
Loading historical data...
Loading historical data...
Loading historical data...

Documentation

Showing up to 5 results
|